Location: Shenandoah County Park
(38.9356°N, 78.4524°W)
Time: 01:06:33
(UTC-05:00)

A-11 Canister half - Pass Details

Date: 07 December 2023
Orbit: 1526 x 1682 km, 47.3° (Epoch: 01 March)

Event Time Altitude Azimuth Distance (km) Brightness Sun altitude
Rises 18:12:25 0° 230° (SW) 4,900 13.0 -15.3°
Reaches altitude 10° 18:15:33 10° 230° (SW) 3,924 12.2 -15.9°
Maximum altitude 18:25:40 80° 145° (SE) 1,706 9.1 -17.8°
Enters shadow 18:32:24 25° 62° (ENE) 2,913 9.9 -19.1°
